• In Sweden
  • List of Countries
  • For 7 days
  • Water Temperature
  • Satellite Maps
  • Weather Map
  • Weather Widgets
  • user-avatar
    Login

    Hourly Weather Leicester

    Today, 24 September, Sunday

    Time Temperature Precipitation Wind Pressure Humidity
    00:00 +12°C° 0 mm 3 mps 758 mmHg 74%
    01:00 +12°C° 0 mm 3 mps 758 mmHg 74%
    02:00 +12°C° 0 mm 3 mps 758 mmHg 75%
    03:00 +12°C° 0 mm 3 mps 757 mmHg 75%
    04:00 +11°C° 0 mm 3 mps 757 mmHg 79%
    05:00 +11°C° 0 mm 3 mps 757 mmHg 84%
    06:00 +10°C° 0 mm 2 mps 757 mmHg 90%
    07:00 +12°C° 0 mm 3 mps 757 mmHg 86%
    08:00 +14°C° 0 mm 4 mps 758 mmHg 81%
    09:00 +15°C° 0 mm 4 mps 758 mmHg 77%
    10:00 +18°C° 0 mm 4 mps 758 mmHg 72%
    11:00 +19°C° 0 mm 5 mps 757 mmHg 67%
    12:00 +20°C° 0 mm 4 mps 757 mmHg 60%
    13:00 +20°C° 0 mm 4 mps 757 mmHg 61%
    14:00 +20°C° 0 mm 4 mps 757 mmHg 61%
    15:00 +20°C° 0 mm 4 mps 757 mmHg 61%
    16:00 +20°C° 0 mm 4 mps 757 mmHg 64%
    17:00 +19°C° 0 mm 3 mps 757 mmHg 67%
    18:00 +18°C° 0 mm 3 mps 757 mmHg 69%
    19:00 +17°C° 0 mm 3 mps 757 mmHg 71%
    20:00 +17°C° 0 mm 3 mps 757 mmHg 73%
    21:00 +16°C° 0 mm 3 mps 757 mmHg 75%
    22:00 +16°C° 0.2 mm 3 mps 757 mmHg 78%
    23:00 +16°C° 0.2 mm 3 mps 757 mmHg 82%

    Tomorrow, 25 September, Monday

    Time Temperature Precipitation Wind Pressure Humidity
    00:00 +15°C° 0.2 mm 2 mps 757 mmHg 85%
    01:00 +15°C° 0.9 mm 2 mps 757 mmHg 88%
    02:00 +15°C° 0.9 mm 2 mps 757 mmHg 91%
    03:00 +15°C° 0.9 mm 2 mps 757 mmHg 94%
    04:00 +15°C° 0.9 mm 2 mps 757 mmHg 94%
    05:00 +14°C° 0.9 mm 3 mps 757 mmHg 94%
    06:00 +14°C° 0.9 mm 3 mps 757 mmHg 95%
    07:00 +14°C° 0.8 mm 3 mps 757 mmHg 94%
    08:00 +14°C° 0.8 mm 3 mps 757 mmHg 93%
    09:00 +14°C° 0.8 mm 3 mps 757 mmHg 92%
    10:00 +16°C° 0.4 mm 3 mps 757 mmHg 91%
    11:00 +16°C° 0.4 mm 3 mps 757 mmHg 90%
    12:00 +16°C° 0.4 mm 3 mps 758 mmHg 89%
    13:00 +16°C° 0.1 mm 3 mps 758 mmHg 88%
    14:00 +16°C° 0.1 mm 3 mps 758 mmHg 87%
    15:00 +16°C° 0.1 mm 2 mps 758 mmHg 85%
    16:00 +16°C° 0.1 mm 2 mps 758 mmHg 87%
    17:00 +16°C° 0.1 mm 2 mps 758 mmHg 88%
    18:00 +15°C° 0.1 mm 2 mps 758 mmHg 90%
    19:00 +15°C° 0 mm 2 mps 759 mmHg 91%
    20:00 +15°C° 0 mm 1 mps 759 mmHg 92%
    21:00 +15°C° 0 mm 1 mps 759 mmHg 93%
    22:00 +14°C° 0 mm 1 mps 759 mmHg 94%
    23:00 +14°C° 0 mm 1 mps 759 mmHg 95%

    Day after tomorrow, 26 September, Tuesday

    Time Temperature Precipitation Wind Pressure Humidity
    00:00 +13°C° 0 mm 1 mps 759 mmHg 95%
    01:00 +13°C° 0 mm 1 mps 759 mmHg 96%
    02:00 +13°C° 0 mm 1 mps 759 mmHg 96%
    03:00 +13°C° 0 mm 1 mps 759 mmHg 97%
    04:00 +13°C° 0 mm 1 mps 759 mmHg 97%
    05:00 +13°C° 0 mm 1 mps 759 mmHg 97%
    06:00 +12°C° 0 mm 1 mps 759 mmHg 97%
    07:00 +13°C° 0 mm 1 mps 759 mmHg 94%
    08:00 +15°C° 0 mm 1 mps 760 mmHg 90%
    09:00 +16°C° 0 mm 1 mps 760 mmHg 87%
    10:00 +18°C° 0 mm 1 mps 760 mmHg 83%
    11:00 +18°C° 0 mm 1 mps 759 mmHg 78%
    12:00 +19°C° 0 mm 1 mps 759 mmHg 74%
    13:00 +20°C° 0 mm 1 mps 759 mmHg 72%
    14:00 +20°C° 0 mm 1 mps 759 mmHg 70%
    15:00 +20°C° 0 mm 1 mps 759 mmHg 68%
    16:00 +19°C° 0 mm 1 mps 759 mmHg 72%
    17:00 +18°C° 0 mm 1 mps 759 mmHg 77%
    18:00 +16°C° 0 mm 1 mps 759 mmHg 82%
    19:00 +16°C° 0 mm 1 mps 759 mmHg 84%
    20:00 +15°C° 0 mm 1 mps 759 mmHg 86%
    21:00 +15°C° 0 mm 1 mps 760 mmHg 88%
    22:00 +15°C° 0 mm 1 mps 759 mmHg 90%
    23:00 +14°C° 0 mm 1 mps 759 mmHg 91%

    27 September, Wednesday

    Time Temperature Precipitation Wind Pressure Humidity
    00:00 +14°C° 0 mm 2 mps 759 mmHg 92%
    01:00 +14°C° 0 mm 2 mps 759 mmHg 93%
    02:00 +14°C° 0 mm 2 mps 759 mmHg 94%
    03:00 +14°C° 0 mm 2 mps 758 mmHg 95%
    04:00 +13°C° 0 mm 2 mps 758 mmHg 95%
    05:00 +13°C° 0 mm 2 mps 758 mmHg 95%
    06:00 +13°C° 0 mm 2 mps 758 mmHg 96%
    07:00 +13°C° 0 mm 3 mps 758 mmHg 91%
    08:00 +14°C° 0 mm 3 mps 758 mmHg 87%
    09:00 +17°C° 0 mm 4 mps 758 mmHg 83%
    10:00 +18°C° 0 mm 4 mps 758 mmHg 79%
    11:00 +19°C° 0 mm 5 mps 758 mmHg 75%
    12:00 +20°C° 0 mm 5 mps 757 mmHg 71%
    13:00 +20°C° 0.1 mm 5 mps 757 mmHg 70%
    14:00 +20°C° 0.1 mm 5 mps 757 mmHg 69%
    15:00 +20°C° 0.1 mm 5 mps 756 mmHg 68%
    16:00 +19°C° 0.1 mm 4 mps 756 mmHg 71%
    17:00 +18°C° 0.1 mm 4 mps 756 mmHg 74%
    18:00 +17°C° 0.1 mm 4 mps 756 mmHg 77%
    19:00 +17°C° 0.2 mm 4 mps 756 mmHg 79%
    20:00 +15°C° 0.2 mm 4 mps 756 mmHg 80%
    21:00 +15°C° 0.2 mm 4 mps 756 mmHg 82%
    22:00 +15°C° 0.7 mm 4 mps 755 mmHg 84%
    23:00 +14°C° 0.7 mm 3 mps 755 mmHg 87%

    28 September, Thursday

    Time Temperature Precipitation Wind Pressure Humidity
    00:00 +14°C° 0.7 mm 3 mps 755 mmHg 89%
    01:00 +14°C° 0.7 mm 3 mps 755 mmHg 90%
    02:00 +14°C° 0.7 mm 3 mps 754 mmHg 91%
    03:00 +14°C° 0.7 mm 3 mps 754 mmHg 92%
    04:00 +14°C° 0.3 mm 3 mps 754 mmHg 92%
    05:00 +14°C° 0.3 mm 3 mps 754 mmHg 93%
    06:00 +14°C° 0.3 mm 3 mps 755 mmHg 93%
    07:00 +14°C° 0.1 mm 3 mps 755 mmHg 92%
    08:00 +16°C° 0.1 mm 3 mps 755 mmHg 91%
    09:00 +16°C° 0.1 mm 3 mps 756 mmHg 90%
    10:00 +16°C° 0 mm 3 mps 756 mmHg 87%
    11:00 +17°C° 0 mm 3 mps 756 mmHg 84%
    12:00 +18°C° 0 mm 3 mps 757 mmHg 82%
    13:00 +18°C° 0.1 mm 3 mps 757 mmHg 79%
    14:00 +18°C° 0.1 mm 3 mps 757 mmHg 77%
    15:00 +19°C° 0.1 mm 3 mps 757 mmHg 74%
    16:00 +17°C° 0 mm 2 mps 757 mmHg 78%
    17:00 +16°C° 0 mm 2 mps 758 mmHg 82%
    18:00 +15°C° 0 mm 2 mps 758 mmHg 85%
    19:00 +15°C° 0 mm 1 mps 758 mmHg 87%
    20:00 +14°C° 0 mm 1 mps 758 mmHg 88%
    21:00 +14°C° 0 mm 1 mps 758 mmHg 90%
    22:00 +13°C° 0 mm 2 mps 758 mmHg 89%
    23:00 +13°C° 0 mm 2 mps 758 mmHg 89%

    29 September, Friday

    Time Temperature Precipitation Wind Pressure Humidity
    00:00 +12°C° 0 mm 2 mps 758 mmHg 89%
    01:00 +12°C° 0 mm 2 mps 758 mmHg 89%
    02:00 +12°C° 0 mm 2 mps 758 mmHg 89%
    03:00 +10°C° 0 mm 2 mps 758 mmHg 88%
    04:00 +10°C° 0 mm 3 mps 758 mmHg 89%
    05:00 +10°C° 0 mm 3 mps 757 mmHg 89%
    06:00 +10°C° 0 mm 3 mps 757 mmHg 90%
    07:00 +11°C° 0 mm 3 mps 757 mmHg 86%
    08:00 +13°C° 0 mm 4 mps 757 mmHg 82%
    09:00 +14°C° 0 mm 4 mps 757 mmHg 78%
    10:00 +15°C° 0 mm 4 mps 757 mmHg 75%
    11:00 +16°C° 0 mm 5 mps 756 mmHg 73%
    12:00 +17°C° 0 mm 5 mps 756 mmHg 71%
    13:00 +18°C° 0.1 mm 4 mps 756 mmHg 73%
    14:00 +18°C° 0.1 mm 4 mps 755 mmHg 75%
    15:00 +17°C° 0.1 mm 3 mps 755 mmHg 77%
    16:00 +17°C° 0.4 mm 3 mps 755 mmHg 81%
    17:00 +16°C° 0.4 mm 3 mps 755 mmHg 85%
    18:00 +15°C° 0.4 mm 4 mps 755 mmHg 89%
    19:00 +14°C° 0.5 mm 4 mps 755 mmHg 90%
    20:00 +14°C° 0.5 mm 4 mps 755 mmHg 91%
    21:00 +14°C° 0.5 mm 4 mps 755 mmHg 92%
    22:00 +13°C° 0.7 mm 4 mps 755 mmHg 90%
    23:00 +12°C° 0.7 mm 4 mps 755 mmHg 88%
    Show more